#Datum;Uhrzeit;WR;Pac;DaySum;Status;WR;Pac;DaySum;Status;Pdc1;Udc;Temp;WR;Pac;DaySum;Status;Pdc1;Udc;Temp;WR;Pac;DaySum;Status;Pdc1;Udc;Temp;WR;Pac;DaySum;Status;Pdc1;Pdc2;Udc1;Udc2;Temp;WR;Pac;DaySum;Status;Pdc1;Pdc2;Udc1;Udc2;Temp;WR;Pac;DaySum;Status;Pdc1;Udc;Temp;WR;Pac;DaySum;Status;Pdc1;Udc;Temp;WR;Pac;DaySum;Status;Pdc1;Udc;Temp
10.12.20;23:55:00;1;327;22211;0;2;0;1771;0;0;0;0;3;0;1081;0;0;0;0;4;0;1581;0;0;0;0;5;0;0;0;0;0;0;0;0;6;0;3124;0;0;0;0;0;0;7;0;1597;0;0;0;0;8;0;1652;0;0;0;0;9;0;919;0;0;0;0
10.12.20;23:50:00;1;340;22184;0;2;0;1771;0;0;0;0;3;0;1081;0;0;0;0;4;0;1581;0;0;0;0;5;0;0;0;0;0;0;0;0;6;0;3124;0;0;0;0;0;0;7;0;1597;0;0;0;0;8;0;1652;0;0;0;0;9;0;919;0;0;0;0
10.12.20;23:45:00;1;398;22155;0;2;0;1771;0;0;0;0;3;0;1081;0;0;0;0;4;0;1581;0;0;0;0;5;0;0;0;0;0;0;0;0;6;0;3124;0;0;0;0;0;0;7;0;1597;0;0;0;0;8;0;1652;0;0;0;0;9;0;919;0;0;0;0
10.12.20;23:40:00;1;408;22122;0;2;0;1771;0;0;0;0;3;0;1081;0;0;0;0;4;0;1581;0;0;0;0;5;0;0;0;0;0;0;0;0;6;0;3124;0;0;0;0;0;0;7;0;1597;0;0;0;0;8;0;1652;0;0;0;0;9;0;919;0;0;0;0
10.12.20;23:35:00;1;325;22090;0;2;0;1771;0;0;0;0;3;0;1081;0;0;0;0;4;0;1581;0;0;0;0;5;0;0;0;0;0;0;0;0;6;0;3124;0;0;0;0;0;0;7;0;1597;0;0;0;0;8;0;1652;0;0;0;0;9;0;919;0;0;0;0
10.12.20;23:30:00;1;395;22063;0;2;0;1771;0;0;0;0;3;0;1081;0;0;0;0;4;0;1581;0;0;0;0;5;0;0;0;0;0;0;0;0;6;0;3124;0;0;0;0;0;0;7;0;1597;0;0;0;0;8;0;1652;0;0;0;0;9;0;919;0;0;0;0
10.12.20;23:25:00;1;377;22030;0;2;0;1771;0;0;0;0;3;0;1081;0;0;0;0;4;0;1581;0;0;0;0;5;0;0;0;0;0;0;0;0;6;0;3124;0;0;0;0;0;0;7;0;1597;0;0;0;0;8;0;1652;0;0;0;0;9;0;919;0;0;0;0
10.12.20;23:20:00;1;451;21999;0;2;0;1771;0;0;0;0;3;0;1081;0;0;0;0;4;0;1581;0;0;0;0;5;0;0;0;0;0;0;0;0;6;0;3124;0;0;0;0;0;0;7;0;1597;0;0;0;0;8;0;1652;0;0;0;0;9;0;919;0;0;0;0
10.12.20;23:15:00;1;410;21961;0;2;0;1771;0;0;0;0;3;0;1081;0;0;0;0;4;0;1581;0;0;0;0;5;0;0;0;0;0;0;0;0;6;0;3124;0;0;0;0;0;0;7;0;1597;0;0;0;0;8;0;1652;0;0;0;0;9;0;919;0;0;0;0
10.12.20;23:10:00;1;465;21928;0;2;0;1771;0;0;0;0;3;0;1081;0;0;0;0;4;0;1581;0;0;0;0;5;0;0;0;0;0;0;0;0;6;0;3124;0;0;0;0;0;0;7;0;1597;0;0;0;0;8;0;1652;0;0;0;0;9;0;919;0;0;0;0
10.12.20;23:05:00;1;456;21889;0;2;0;1771;0;0;0;0;3;0;1081;0;0;0;0;4;0;1581;0;0;0;0;5;0;0;0;0;0;0;0;0;6;0;3124;0;0;0;0;0;0;7;0;1597;0;0;0;0;8;0;1652;0;0;0;0;9;0;919;0;0;0;0
10.12.20;23:00:00;1;466;21852;0;2;0;1771;0;0;0;0;3;0;1081;0;0;0;0;4;0;1581;0;0;0;0;5;0;0;0;0;0;0;0;0;6;0;3124;0;0;0;0;0;0;7;0;1597;0;0;0;0;8;0;1652;0;0;0;0;9;0;919;0;0;0;0
10.12.20;22:55:00;1;466;21814;0;2;0;1771;0;0;0;0;3;0;1081;0;0;0;0;4;0;1581;0;0;0;0;5;0;0;0;0;0;0;0;0;6;0;3124;2;0;0;0;0;0;7;0;1597;0;0;0;0;8;0;1652;0;0;0;0;9;0;919;0;0;0;0
10.12.20;22:50:00;1;454;21775;0;2;0;1771;0;0;0;0;3;0;1081;0;0;0;0;4;0;1581;0;0;0;0;5;0;0;0;0;0;0;0;0;6;0;3124;2;0;0;0;0;0;7;0;1597;0;0;0;0;8;0;1652;0;0;0;0;9;0;919;0;0;0;0
10.12.20;22:45:00;1;415;21736;0;2;0;1771;0;0;0;0;3;0;1081;0;0;0;0;4;0;1581;0;0;0;0;5;0;0;0;0;0;0;0;0;6;0;3124;2;0;0;0;0;0;7;0;1597;0;0;0;0;8;0;1652;0;0;0;0;9;0;919;0;0;0;0
10.12.20;22:40:00;1;479;21701;0;2;0;1771;0;0;0;0;3;0;1081;0;0;0;0;4;0;1581;0;0;0;0;5;0;0;0;0;0;0;0;0;6;0;3124;2;0;0;0;0;0;7;0;1597;0;0;0;0;8;0;1652;0;0;0;0;9;0;919;0;0;0;0
10.12.20;22:35:00;1;424;21662;0;2;0;1771;0;0;0;0;3;0;1081;0;0;0;0;4;0;1581;0;0;0;0;5;0;0;0;0;0;0;0;0;6;0;3124;2;0;0;0;0;0;7;0;1597;0;0;0;0;8;0;1652;0;0;0;0;9;0;919;0;0;0;0
10.12.20;22:30:00;1;412;21626;0;2;0;1771;0;0;0;0;3;0;1081;0;0;0;0;4;0;1581;0;0;0;0;5;0;0;0;0;0;0;0;0;6;0;3124;2;0;0;0;0;0;7;0;1597;0;0;0;0;8;0;1652;0;0;0;0;9;0;919;0;0;0;0
10.12.20;22:25:00;1;702;21592;0;2;0;1771;0;0;0;0;3;0;1081;0;0;0;0;4;0;1581;0;0;0;0;5;0;0;0;0;0;0;0;0;6;0;3124;2;0;0;0;0;0;7;0;1597;0;0;0;0;8;0;1652;0;0;0;0;9;0;919;0;0;0;0
10.12.20;22:20:00;1;2363;21539;0;2;0;1771;0;0;0;0;3;0;1081;0;0;0;0;4;0;1581;0;0;0;0;5;0;0;0;0;0;0;0;0;6;0;3124;2;0;0;0;0;0;7;0;1597;0;0;0;0;8;0;1652;0;0;0;0;9;0;919;0;0;0;0
10.12.20;22:15:00;1;2372;21341;0;2;0;1771;0;0;0;0;3;0;1081;0;0;0;0;4;0;1581;0;0;0;0;5;0;0;0;0;0;0;0;0;6;0;3124;2;0;0;0;0;0;7;0;1597;0;0;0;0;8;0;1652;0;0;0;0;9;0;919;0;0;0;0
10.12.20;22:10:00;1;2432;21144;0;2;0;1771;0;0;0;0;3;0;1081;0;0;0;0;4;0;1581;0;0;0;0;5;0;0;0;0;0;0;0;0;6;0;3124;2;0;0;0;0;0;7;0;1597;0;0;0;0;8;0;1652;0;0;0;0;9;0;919;0;0;0;0
10.12.20;22:05:00;1;1711;20941;0;2;0;1771;0;0;0;0;3;0;1081;0;0;0;0;4;0;1581;0;0;0;0;5;0;0;0;0;0;0;0;0;6;0;3124;2;0;0;0;0;0;7;0;1597;0;0;0;0;8;0;1652;0;0;0;0;9;0;919;0;0;0;0
10.12.20;22:00:00;1;613;20799;0;2;0;1771;0;0;0;0;3;0;1081;0;0;0;0;4;0;1581;0;0;0;0;5;0;0;0;0;0;0;0;0;6;0;3124;2;0;0;0;0;0;7;0;1597;0;0;0;0;8;0;1652;0;0;0;0;9;0;919;0;0;0;0
10.12.20;21:55:00;1;736;20747;0;2;0;1771;0;0;0;0;3;0;1081;0;0;0;0;4;0;1581;0;0;0;0;5;0;0;0;0;0;0;0;0;6;0;3124;2;0;0;0;0;0;7;0;1597;0;0;0;0;8;0;1652;0;0;0;0;9;0;919;0;0;0;0
10.12.20;21:50:00;1;670;20683;0;2;0;1771;0;0;0;0;3;0;1081;0;0;0;0;4;0;1581;0;0;0;0;5;0;0;0;0;0;0;0;0;6;0;3124;2;0;0;0;0;0;7;0;1597;0;0;0;0;8;0;1652;0;0;0;0;9;0;919;0;0;0;0
10.12.20;21:45:00;1;685;20626;0;2;0;1771;0;0;0;0;3;0;1081;0;0;0;0;4;0;1581;0;0;0;0;5;0;0;0;0;0;0;0;0;6;0;3124;2;0;0;0;0;0;7;0;1597;0;0;0;0;8;0;1652;0;0;0;0;9;0;919;0;0;0;0
10.12.20;21:40:00;1;693;20567;0;2;0;1771;0;0;0;0;3;0;1081;0;0;0;0;4;0;1581;0;0;0;0;5;0;0;0;0;0;0;0;0;6;0;3124;2;0;0;0;0;0;7;0;1597;0;0;0;0;8;0;1652;0;0;0;0;9;0;919;0;0;0;0
10.12.20;21:35:00;1;456;20511;0;2;0;1771;0;0;0;0;3;0;1081;0;0;0;0;4;0;1581;0;0;0;0;5;0;0;0;0;0;0;0;0;6;0;3124;2;0;0;0;0;0;7;0;1597;0;0;0;0;8;0;1652;0;0;0;0;9;0;919;0;0;0;0
10.12.20;21:30:00;1;1434;20474;0;2;0;1771;0;0;0;0;3;0;1081;0;0;0;0;4;0;1581;0;0;0;0;5;0;0;0;0;0;0;0;0;6;0;3124;2;0;0;0;0;0;7;0;1597;0;0;0;0;8;0;1652;0;0;0;0;9;0;919;0;0;0;0
10.12.20;21:25:00;1;2172;20379;0;2;0;1771;0;0;0;0;3;0;1081;0;0;0;0;4;0;1581;0;0;0;0;5;0;0;0;0;0;0;0;0;6;0;3124;2;0;0;0;0;0;7;0;1597;0;0;0;0;8;0;1652;0;0;0;0;9;0;919;0;0;0;0
10.12.20;21:20:00;1;2200;20199;0;2;0;1771;0;0;0;0;3;0;1081;0;0;0;0;4;0;1581;0;0;0;0;5;0;0;0;0;0;0;0;0;6;0;3124;2;0;0;0;0;0;7;0;1597;0;0;0;0;8;0;1652;0;0;0;0;9;0;919;0;0;0;0
10.12.20;21:15:00;1;1186;20016;0;2;0;1771;0;0;0;0;3;0;1081;0;0;0;0;4;0;1581;0;0;0;0;5;0;0;0;0;0;0;0;0;6;0;3124;2;0;0;0;0;0;7;0;1597;0;0;0;0;8;0;1652;0;0;0;0;9;0;919;0;0;0;0
10.12.20;21:10:00;1;554;19908;0;2;0;1771;0;0;0;0;3;0;1081;0;0;0;0;4;0;1581;0;0;0;0;5;0;0;0;0;0;0;0;0;6;0;3124;2;0;0;0;0;0;7;0;1597;0;0;0;0;8;0;1652;0;0;0;0;9;0;919;0;0;0;0
10.12.20;21:05:00;1;519;19867;0;2;0;1771;0;0;0;0;3;0;1081;0;0;0;0;4;0;1581;0;0;0;0;5;0;0;0;0;0;0;0;0;6;0;3124;2;0;0;0;0;0;7;0;1597;0;0;0;0;8;0;1652;0;0;0;0;9;0;919;0;0;0;0
10.12.20;21:00:00;1;501;19821;0;2;0;1771;0;0;0;0;3;0;1081;0;0;0;0;4;0;1581;0;0;0;0;5;0;0;0;0;0;0;0;0;6;0;3124;2;0;0;0;0;0;7;0;1597;0;0;0;0;8;0;1652;0;0;0;0;9;0;919;0;0;0;0
10.12.20;20:55:00;1;557;19777;0;2;0;1771;0;0;0;0;3;0;1081;0;0;0;0;4;0;1581;0;0;0;0;5;0;0;0;0;0;0;0;0;6;0;3124;2;0;0;0;0;0;7;0;1597;0;0;0;0;8;0;1652;0;0;0;0;9;0;919;0;0;0;0
10.12.20;20:50:00;1;503;19730;0;2;0;1771;0;0;0;0;3;0;1081;0;0;0;0;4;0;1581;0;0;0;0;5;0;0;0;0;0;0;0;0;6;0;3124;2;0;0;0;0;0;7;0;1597;0;0;0;0;8;0;1652;0;0;0;0;9;0;919;0;0;0;0
10.12.20;20:45:00;1;441;19689;0;2;0;1771;0;0;0;0;3;0;1081;0;0;0;0;4;0;1581;0;0;0;0;5;0;0;0;0;0;0;0;0;6;0;3124;2;0;0;0;0;0;7;0;1597;0;0;0;0;8;0;1652;0;0;0;0;9;0;919;0;0;0;0
10.12.20;20:40:00;1;416;19651;0;2;0;1771;0;0;0;0;3;0;1081;0;0;0;0;4;0;1581;0;0;0;0;5;0;0;0;0;0;0;0;0;6;0;3124;2;0;0;0;0;0;7;0;1597;0;0;0;0;8;0;1652;0;0;0;0;9;0;919;0;0;0;0
10.12.20;20:35:00;1;336;19614;0;2;0;1771;0;0;0;0;3;0;1081;0;0;0;0;4;0;1581;0;0;0;0;5;0;0;0;0;0;0;0;0;6;0;3124;2;0;0;0;0;0;7;0;1597;0;0;0;0;8;0;1652;0;0;0;0;9;0;919;0;0;0;0
10.12.20;20:30:00;1;370;19586;0;2;0;1771;0;0;0;0;3;0;1081;0;0;0;0;4;0;1581;0;0;0;0;5;0;0;0;0;0;0;0;0;6;0;3124;2;0;0;0;0;0;7;0;1597;0;0;0;0;8;0;1652;0;0;0;0;9;0;919;0;0;0;0
10.12.20;20:25:00;1;379;19556;0;2;0;1771;0;0;0;0;3;0;1081;0;0;0;0;4;0;1581;0;0;0;0;5;0;0;0;0;0;0;0;0;6;0;3124;2;0;0;0;0;0;7;0;1597;0;0;0;0;8;0;1652;0;0;0;0;9;0;919;0;0;0;0
10.12.20;20:20:00;1;341;19524;0;2;0;1771;0;0;0;0;3;0;1081;0;0;0;0;4;0;1581;0;0;0;0;5;0;0;0;0;0;0;0;0;6;0;3124;2;0;0;0;0;0;7;0;1597;0;0;0;0;8;0;1652;0;0;0;0;9;0;919;0;0;0;0
10.12.20;20:15:00;1;389;19496;0;2;0;1771;0;0;0;0;3;0;1081;0;0;0;0;4;0;1581;0;0;0;0;5;0;0;0;0;0;0;0;0;6;0;3124;2;0;0;0;0;0;7;0;1597;0;0;0;0;8;0;1652;0;0;0;0;9;0;919;0;0;0;0
10.12.20;20:10:00;1;429;19464;0;2;0;1771;0;0;0;0;3;0;1081;0;0;0;0;4;0;1581;0;0;0;0;5;0;0;0;0;0;0;0;0;6;0;3124;2;0;0;0;0;0;7;0;1597;0;0;0;0;8;0;1652;0;0;0;0;9;0;919;0;0;0;0
10.12.20;20:05:00;1;388;19428;0;2;0;1771;0;0;0;0;3;0;1081;0;0;0;0;4;0;1581;0;0;0;0;5;0;0;0;0;0;0;0;0;6;0;3124;2;0;0;0;0;0;7;0;1597;0;0;0;0;8;0;1652;0;0;0;0;9;0;919;0;0;0;0
10.12.20;20:00:00;1;367;19395;0;2;0;1771;0;0;0;0;3;0;1081;0;0;0;0;4;0;1581;0;0;0;0;5;0;0;0;0;0;0;0;0;6;0;3124;2;0;0;0;0;0;7;0;1597;0;0;0;0;8;0;1652;0;0;0;0;9;0;919;0;0;0;0
10.12.20;19:55:00;1;345;19364;0;2;0;1771;0;0;0;0;3;0;1081;0;0;0;0;4;0;1581;0;0;0;0;5;0;0;0;0;0;0;0;0;6;0;3124;2;0;0;0;0;0;7;0;1597;0;0;0;0;8;0;1652;0;0;0;0;9;0;919;0;0;0;0
10.12.20;19:50:00;1;343;19335;0;2;0;1771;0;0;0;0;3;0;1081;0;0;0;0;4;0;1581;0;0;0;0;5;0;0;0;0;0;0;0;0;6;0;3124;2;0;0;0;0;0;7;0;1597;0;0;0;0;8;0;1652;0;0;0;0;9;0;919;0;0;0;0
10.12.20;19:45:00;1;392;19306;0;2;0;1771;0;0;0;0;3;0;1081;0;0;0;0;4;0;1581;0;0;0;0;5;0;0;0;0;0;0;0;0;6;0;3124;2;0;0;0;0;0;7;0;1597;0;0;0;0;8;0;1652;0;0;0;0;9;0;919;0;0;0;0
10.12.20;19:40:00;1;451;19274;0;2;0;1771;0;0;0;0;3;0;1081;0;0;0;0;4;0;1581;0;0;0;0;5;0;0;0;0;0;0;0;0;6;0;3124;2;0;0;0;0;0;7;0;1597;0;0;0;0;8;0;1652;0;0;0;0;9;0;919;0;0;0;0
10.12.20;19:35:00;1;1277;19237;0;2;0;1771;0;0;0;0;3;0;1081;0;0;0;0;4;0;1581;0;0;0;0;5;0;0;0;0;0;0;0;0;6;0;3124;2;0;0;0;0;0;7;0;1597;0;0;0;0;8;0;1652;0;0;0;0;9;0;919;0;0;0;0
10.12.20;19:30:00;1;1453;19153;0;2;0;1771;0;0;0;0;3;0;1081;0;0;0;0;4;0;1581;0;0;0;0;5;0;0;0;0;0;0;0;0;6;0;3124;2;0;0;0;0;0;7;0;1597;0;0;0;0;8;0;1652;0;0;0;0;9;0;919;0;0;0;0
10.12.20;19:25:00;1;1608;18967;0;2;0;1771;0;0;0;0;3;0;1081;0;0;0;0;4;0;1581;0;0;0;0;5;0;0;0;0;0;0;0;0;6;0;3124;2;0;0;0;0;0;7;0;1597;0;0;0;0;8;0;1652;0;0;0;0;9;0;919;0;0;0;0
10.12.20;19:20:00;1;3724;18800;0;2;0;1771;0;0;0;0;3;0;1081;0;0;0;0;4;0;1581;0;0;0;0;5;0;0;0;0;0;0;0;0;6;0;3124;2;0;0;0;0;0;7;0;1597;0;0;0;0;8;0;1652;0;0;0;0;9;0;919;0;0;0;0
10.12.20;19:15:00;1;1252;18512;0;2;0;1771;0;0;0;0;3;0;1081;0;0;0;0;4;0;1581;0;0;0;0;5;0;0;0;0;0;0;0;0;6;0;3124;2;0;0;0;0;0;7;0;1597;0;0;0;0;8;0;1652;0;0;0;0;9;0;919;0;0;0;0
10.12.20;19:10:00;1;1323;18356;0;2;0;1771;0;0;0;0;3;0;1081;0;0;0;0;4;0;1581;0;0;0;0;5;0;0;0;0;0;0;0;0;6;0;3124;2;0;0;0;0;0;7;0;1597;0;0;0;0;8;0;1652;0;0;0;0;9;0;919;0;0;0;0
10.12.20;19:05:00;1;1464;18175;0;2;0;1771;0;0;0;0;3;0;1081;0;0;0;0;4;0;1581;0;0;0;0;5;0;0;0;0;0;0;0;0;6;0;3124;2;0;0;0;0;0;7;0;1597;0;0;0;0;8;0;1652;0;0;0;0;9;0;919;0;0;0;0
10.12.20;19:00:00;1;1758;18019;0;2;0;1771;0;0;0;0;3;0;1081;0;0;0;0;4;0;1581;0;0;0;0;5;0;0;0;0;0;0;0;0;6;0;3124;2;0;0;0;0;0;7;0;1597;0;0;0;0;8;0;1652;0;0;0;0;9;0;919;0;0;0;0
10.12.20;18:55:00;1;1942;17883;0;2;0;1771;0;0;0;0;3;0;1081;0;0;0;0;4;0;1581;0;0;0;0;5;0;0;0;0;0;0;0;0;6;0;3124;2;0;0;0;0;0;7;0;1597;0;0;0;0;8;0;1652;0;0;0;0;9;0;919;0;0;0;0
10.12.20;18:50:00;1;1864;17727;0;2;0;1771;0;0;0;0;3;0;1081;0;0;0;0;4;0;1581;0;0;0;0;5;0;0;0;0;0;0;0;0;6;0;3124;2;0;0;0;0;0;7;0;1597;0;0;0;0;8;0;1652;0;0;0;0;9;0;919;0;0;0;0
10.12.20;18:45:00;1;2194;17564;0;2;0;1771;0;0;0;0;3;0;1081;0;0;0;0;4;0;1581;0;0;0;0;5;0;0;0;0;0;0;0;0;6;0;3124;2;0;0;0;0;0;7;0;1597;0;0;0;0;8;0;1652;0;0;0;0;9;0;919;0;0;0;0
10.12.20;18:40:00;1;1685;17429;0;2;0;1771;0;0;0;0;3;0;1081;0;0;0;0;4;0;1581;0;0;0;0;5;0;0;0;0;0;0;0;0;6;0;3124;2;0;0;0;0;0;7;0;1597;0;0;0;0;8;0;1652;0;0;0;0;9;0;919;0;0;0;0
10.12.20;18:35:00;1;1833;17295;0;2;0;1771;0;0;0;0;3;0;1081;0;0;0;0;4;0;1581;0;0;0;0;5;0;0;0;0;0;0;0;0;6;0;3124;2;0;0;0;0;0;7;0;1597;0;0;0;0;8;0;1652;0;0;0;0;9;0;919;0;0;0;0
10.12.20;18:30:00;1;1911;17147;0;2;0;1771;0;0;0;0;3;0;1081;0;0;0;0;4;0;1581;0;0;0;0;5;0;0;0;0;0;0;0;0;6;0;3124;2;0;0;0;0;0;7;0;1597;0;0;0;0;8;0;1652;0;0;0;0;9;0;919;0;0;0;0
10.12.20;18:25:00;1;2238;16962;0;2;0;1771;0;0;0;0;3;0;1081;0;0;0;0;4;0;1581;0;0;0;0;5;0;0;0;0;0;0;0;0;6;0;3124;2;0;0;0;0;0;7;0;1597;0;0;0;0;8;0;1652;0;0;0;0;9;0;919;0;0;0;0
10.12.20;18:20:00;1;2251;16798;0;2;0;1771;0;0;0;0;3;0;1081;0;0;0;0;4;0;1581;0;0;0;0;5;0;0;0;0;0;0;0;0;6;0;3124;2;0;0;0;0;0;7;0;1597;0;0;0;0;8;0;1652;0;0;0;0;9;0;919;0;0;0;0
10.12.20;18:15:00;1;2708;16615;0;2;0;1771;0;0;0;0;3;0;1081;0;0;0;0;4;0;1581;0;0;0;0;5;0;0;0;0;0;0;0;0;6;0;3124;2;0;0;0;0;0;7;0;1597;0;0;0;0;8;0;1652;0;0;0;0;9;0;919;0;0;0;0
10.12.20;18:10:00;1;2527;16403;0;2;0;1771;0;0;0;0;3;0;1081;0;0;0;0;4;0;1581;0;0;0;0;5;0;0;0;0;0;0;0;0;6;0;3124;2;0;0;0;0;0;7;0;1597;0;0;0;0;8;0;1652;0;0;0;0;9;0;919;0;0;0;0
10.12.20;18:05:00;1;4338;16167;0;2;0;1771;0;0;0;0;3;0;1081;0;0;0;0;4;0;1581;0;0;0;0;5;0;0;0;0;0;0;0;0;6;0;3124;2;0;0;0;0;0;7;0;1597;0;0;0;0;8;0;1652;0;0;0;0;9;0;919;0;0;0;0
10.12.20;18:00:00;1;2338;15806;0;2;0;1771;0;0;0;0;3;0;1081;0;0;0;0;4;0;1581;0;0;0;0;5;0;0;0;0;0;0;0;0;6;0;3124;2;0;0;0;0;0;7;0;1597;0;0;0;0;8;0;1652;0;0;0;0;9;0;919;0;0;0;0
10.12.20;17:55:00;1;669;15590;0;2;0;1771;0;0;0;0;3;0;1081;0;0;0;0;4;0;1581;0;0;0;0;5;0;0;0;0;0;0;0;0;6;0;3124;2;0;0;0;0;0;7;0;1597;0;0;0;0;8;0;1652;0;0;0;0;9;0;919;0;0;0;0
10.12.20;17:50:00;1;1047;15534;0;2;0;1771;0;0;0;0;3;0;1081;0;0;0;0;4;0;1581;0;0;0;0;5;0;0;0;0;0;0;0;0;6;0;3124;2;0;0;0;0;0;7;0;1597;0;0;0;0;8;0;1652;0;0;0;0;9;0;919;0;0;0;0
10.12.20;17:45:00;1;767;15445;0;2;0;1771;0;0;0;0;3;0;1081;0;0;0;0;4;0;1581;0;0;0;0;5;0;0;0;0;0;0;0;0;6;0;3124;2;0;0;0;0;0;7;0;1597;0;0;0;0;8;0;1652;0;0;0;0;9;0;919;0;0;0;0
10.12.20;17:40:00;1;694;15375;0;2;0;1771;0;0;0;0;3;0;1081;0;0;0;0;4;0;1581;0;0;0;0;5;0;0;0;0;0;0;0;0;6;0;3124;2;0;0;0;0;0;7;0;1597;0;0;0;0;8;0;1652;0;0;0;0;9;0;919;0;0;0;0
10.12.20;17:35:00;1;1071;15300;0;2;0;1771;0;0;0;0;3;0;1081;0;0;0;0;4;0;1581;0;0;0;0;5;0;0;0;0;0;0;0;0;6;0;3124;2;0;0;0;0;0;7;0;1597;0;0;0;0;8;0;1652;0;0;0;0;9;0;919;0;0;0;0
10.12.20;17:30:00;1;1296;15210;0;2;0;1771;0;0;0;0;3;0;1081;0;0;0;0;4;0;1581;0;0;0;0;5;0;0;0;0;0;0;0;0;6;0;3124;2;0;0;0;0;0;7;0;1597;0;0;0;0;8;0;1652;0;0;0;0;9;0;919;0;0;0;0
10.12.20;17:25:00;1;994;15093;0;2;0;1771;0;0;0;0;3;0;1081;0;0;0;0;4;0;1581;0;0;0;0;5;0;0;0;0;0;0;0;0;6;0;3124;2;0;0;0;0;0;7;0;1597;0;0;0;0;8;0;1652;0;0;0;0;9;0;919;0;0;0;0
10.12.20;17:20:00;1;616;15002;0;2;0;1771;0;0;0;0;3;0;1081;0;0;0;0;4;0;1581;0;0;0;0;5;0;0;0;0;0;0;0;0;6;0;3124;2;0;0;0;0;0;7;0;1597;0;0;0;0;8;0;1652;0;0;0;0;9;0;919;0;0;0;0
10.12.20;17:15:00;1;649;14942;0;2;0;1771;0;0;0;0;3;0;1081;0;0;0;0;4;0;1581;0;0;0;0;5;0;0;0;0;0;0;0;0;6;0;3124;2;0;0;0;0;0;7;0;1597;0;0;0;0;8;0;1652;0;0;0;0;9;0;919;0;0;0;0
10.12.20;17:10:00;1;598;14888;0;2;0;1771;0;0;0;0;3;0;1081;0;0;0;0;4;0;1581;0;0;0;0;5;0;0;0;0;0;0;0;0;6;0;3124;2;0;0;0;0;0;7;0;1597;0;0;0;0;8;0;1652;0;0;0;0;9;0;919;0;0;0;0
10.12.20;17:05:00;1;602;14806;0;2;0;1771;0;0;0;0;3;0;1081;0;0;0;0;4;0;1581;0;0;0;0;5;0;0;0;0;0;0;0;0;6;0;3124;2;0;0;0;0;0;7;0;1597;0;0;0;0;8;0;1652;0;0;0;0;9;0;919;0;0;0;0
10.12.20;17:00:00;1;615;14755;0;2;0;1771;0;0;0;0;3;0;1081;0;0;0;0;4;0;1581;0;0;0;0;5;0;0;0;0;0;0;0;0;6;0;3124;2;0;0;0;0;0;7;0;1597;0;0;0;0;8;0;1652;0;0;0;0;9;0;919;0;0;0;0
10.12.20;16:55:00;1;2902;14704;0;2;0;1771;0;0;0;0;3;0;1081;0;0;0;0;4;0;1581;0;0;0;0;5;0;0;0;0;0;0;0;0;6;0;3124;2;0;0;0;0;0;7;0;1597;0;0;0;0;8;0;1652;0;0;0;0;9;0;919;0;0;0;0
10.12.20;16:50:00;1;2689;14479;0;2;0;1771;0;0;0;0;3;0;1081;0;0;0;0;4;0;1581;0;0;0;0;5;0;0;0;0;0;0;0;0;6;0;3124;2;0;0;0;0;0;7;0;1597;0;0;0;0;8;0;1652;0;0;0;0;9;0;919;0;0;0;0
10.12.20;16:45:00;1;2736;14255;0;2;0;1771;0;0;0;0;3;0;1081;0;0;0;0;4;0;1581;0;0;0;0;5;0;0;0;0;0;0;0;0;6;0;3124;2;0;0;0;0;0;7;0;1597;0;0;0;0;8;0;1652;0;0;0;0;9;0;919;0;0;0;0
10.12.20;16:40:00;1;2612;14026;0;2;0;1771;0;0;0;0;3;0;1081;0;0;0;0;4;0;1581;0;0;0;0;5;0;0;0;0;0;0;0;0;6;0;3124;2;0;0;0;0;0;7;0;1597;0;0;0;0;8;0;1652;0;0;0;0;9;0;919;0;0;0;0
10.12.20;16:35:00;1;2668;13777;0;2;0;1771;0;0;0;0;3;0;1081;0;0;0;0;4;0;1581;0;0;0;0;5;0;0;0;0;0;0;0;0;6;0;3124;2;0;0;0;0;0;7;0;1597;0;0;0;0;8;0;1652;0;0;0;0;9;0;919;0;0;0;0
10.12.20;16:30:00;1;2908;13555;0;2;0;1771;0;0;0;0;3;0;1081;0;0;35;1;4;0;1581;0;0;0;0;5;0;0;0;0;0;0;0;0;6;0;3124;2;0;0;0;0;0;7;0;1597;0;0;0;0;8;0;1652;0;0;0;0;9;0;919;0;0;0;0
10.12.20;16:25:00;1;4517;13297;0;2;0;1771;0;0;162;5;3;0;1081;6;0;285;12;4;0;1581;0;0;0;0;5;0;0;0;0;0;0;0;0;6;0;3124;2;0;0;0;0;0;7;0;1597;0;0;0;0;8;0;1652;0;0;0;0;9;0;919;0;0;0;0
10.12.20;16:20:00;1;4772;12910;0;2;0;1771;6;0;290;8;3;0;1081;6;0;319;12;4;0;1581;0;0;61;5;5;0;0;0;0;0;0;0;0;6;0;3124;2;0;0;0;0;0;7;0;1597;0;0;0;0;8;0;1652;0;0;0;0;9;0;919;0;0;0;0
10.12.20;16:15:00;1;3327;12512;0;2;0;1771;6;0;307;8;3;0;1081;6;0;360;12;4;0;1581;1;0;86;6;5;0;0;0;0;0;0;0;0;6;0;3124;1;0;0;0;0;1;7;0;1597;0;0;0;0;8;0;1652;0;0;0;0;9;0;919;0;0;0;0
10.12.20;16:10:00;1;4495;12249;0;2;0;1771;6;0;320;8;3;0;1081;6;0;385;12;4;0;1581;1;0;97;7;5;0;0;0;0;0;0;0;0;6;0;3124;2;0;0;0;0;2;7;0;1597;0;0;0;0;8;0;1652;0;0;0;0;9;0;919;0;0;0;0
10.12.20;16:05:00;1;4603;11874;0;2;0;1771;6;0;333;8;3;0;1081;6;0;396;12;4;0;1581;1;0;108;7;5;0;0;0;0;0;0;0;0;6;0;3124;1;0;0;0;0;2;7;0;1597;0;0;0;0;8;0;1652;0;0;0;0;9;0;919;0;0;72;2
10.12.20;16:00:00;1;2376;11485;0;2;0;1771;6;0;342;8;3;0;1081;3;0;411;12;4;0;1581;1;0;118;7;5;0;0;0;0;0;0;0;0;6;0;3124;23;7;3;179;363;18;7;0;1597;0;0;0;0;8;0;1652;0;0;83;4;9;0;919;6;0;266;8
10.12.20;15:55:00;1;724;11302;0;2;0;1771;6;0;353;8;3;0;1081;6;0;423;12;4;0;1581;1;0;132;7;5;0;0;0;0;0;0;0;0;6;0;3124;23;6;3;236;424;18;7;0;1597;6;0;267;12;8;0;1652;6;0;273;12;9;0;919;6;0;294;8
10.12.20;15:50:00;1;283;11250;0;2;0;1771;6;0;366;8;3;0;1081;6;1;438;12;4;0;1581;1;0;149;7;5;0;0;0;0;0;0;0;0;6;0;3124;23;6;3;536;180;18;7;0;1597;6;0;299;12;8;0;1652;6;0;306;12;9;0;919;6;0;319;8
10.12.20;15:45:00;1;269;11227;0;2;0;1771;6;0;371;8;3;0;1081;6;1;451;12;4;0;1581;1;0;158;7;5;0;0;0;0;0;0;0;0;6;0;3124;23;6;4;181;529;18;7;0;1597;6;0;321;12;8;0;1652;6;0;329;12;9;0;919;6;0;345;9
10.12.20;15:40:00;1;279;11203;0;2;0;1771;6;0;383;9;3;0;1081;6;1;463;12;4;0;1581;1;0;181;8;5;0;0;0;0;0;0;0;0;6;0;3124;23;4;2;181;552;19;7;0;1597;6;0;355;13;8;0;1652;6;0;363;12;9;0;919;6;0;386;9
10.12.20;15:35:00;1;301;11180;0;2;0;1771;6;0;393;9;3;0;1081;6;1;479;12;4;0;1581;1;0;201;8;5;0;0;0;0;0;0;0;0;6;0;3124;23;7;4;212;569;19;7;0;1597;6;0;387;13;8;0;1652;6;0;395;12;9;0;919;6;0;419;9
10.12.20;15:30:00;1;343;11155;0;2;0;1771;6;0;398;9;3;2;1080;6;6;460;12;4;0;1581;1;0;211;8;5;0;0;0;0;0;0;0;0;6;0;3124;23;4;3;480;577;19;7;0;1597;6;0;406;13;8;0;1652;6;0;403;12;9;0;919;3;0;421;9
10.12.20;15:25:00;1;277;11127;0;2;0;1771;6;0;403;9;3;1;1080;3;6;458;12;4;0;1581;1;0;210;8;5;0;0;0;0;0;0;0;0;6;0;3124;1;5;5;477;581;19;7;0;1597;6;0;411;13;8;0;1652;6;0;417;12;9;0;919;6;0;446;9
10.12.20;15:20:00;1;287;11101;0;2;0;1771;6;0;405;9;3;1;1080;6;6;469;12;4;0;1581;1;0;223;8;5;0;0;0;0;0;0;0;0;6;0;3124;8;4;4;485;583;20;7;0;1597;6;0;421;13;8;0;1652;6;0;428;13;9;0;919;6;0;458;9
10.12.20;15:15:00;1;314;11077;0;2;0;1771;6;0;407;9;3;1;1080;6;3;497;12;4;0;1581;1;0;226;9;5;0;0;0;0;0;0;0;0;6;0;3124;23;7;1;388;585;20;7;0;1597;6;0;446;13;8;0;1652;6;1;436;13;9;0;919;6;0;473;9
10.12.20;15:10:00;1;312;11050;0;2;0;1771;6;0;408;9;3;2;1080;6;6;473;13;4;0;1581;3;0;212;9;5;0;0;0;0;0;0;0;0;6;0;3124;23;7;1;434;585;20;7;0;1597;4;1;435;13;8;0;1652;4;0;441;13;9;0;919;6;0;477;9
10.12.20;15:05:00;1;583;11009;0;2;0;1771;6;0;406;9;3;2;1080;6;3;497;13;4;0;1581;3;0;218;9;5;0;0;0;0;0;0;0;0;6;0;3124;1;1;1;408;583;21;7;1;1597;3;3;403;13;8;0;1652;3;2;413;13;9;0;919;6;0;498;9
10.12.20;15:00:00;1;295;10964;0;2;0;1771;6;0;406;9;3;0;1080;6;0;519;13;4;0;1581;3;0;209;9;5;0;0;0;0;0;0;0;0;6;0;3124;8;8;2;394;586;21;7;0;1597;6;4;408;13;8;0;1652;6;2;415;13;9;0;919;4;1;470;9
10.12.20;14:55:00;1;297;10939;0;2;0;1771;6;0;412;10;3;3;1080;3;7;482;13;4;0;1581;3;0;222;10;5;0;0;0;0;0;0;0;0;6;18;3124;23;10;14;522;549;22;7;1;1597;6;1;441;14;8;0;1652;6;1;446;13;9;3;919;3;4;442;9
10.12.20;14:50:00;1;358;10914;0;2;2;1771;4;10;398;10;3;0;1079;6;5;513;13;4;0;1581;3;0;221;10;5;0;0;0;0;0;0;0;0;6;62;3123;4;31;40;490;467;23;7;0;1596;6;1;438;14;8;0;1652;6;1;453;13;9;1;919;6;1;500;9
10.12.20;14:45:00;1;381;10884;0;2;13;1770;3;24;391;10;3;1;1079;6;5;523;13;4;0;1581;3;0;207;10;5;0;0;0;0;0;0;0;0;6;79;3117;4;41;50;490;467;23;7;0;1596;6;3;470;14;8;1;1652;6;4;472;13;9;4;919;6;5;494;10
10.12.20;14:40:00;1;378;10853;0;2;10;1769;6;19;405;10;3;1;1079;6;6;526;13;4;3;1581;3;3;199;10;5;0;0;0;0;0;0;0;0;6;86;3111;4;46;57;490;467;23;7;2;1596;6;4;477;14;8;0;1652;6;4;479;14;9;0;918;6;3;527;10
10.12.20;14:35:00;1;319;10821;0;2;30;1768;6;47;384;11;3;2;1079;6;8;533;13;4;15;1581;3;16;200;10;5;0;0;0;0;0;0;0;0;6;103;3103;4;39;50;490;467;23;7;3;1596;3;15;464;14;8;5;1652;3;15;466;14;9;1;918;6;4;536;10
10.12.20;14:30:00;1;312;10794;0;2;48;1766;4;74;356;11;3;4;1079;6;8;535;13;4;7;1580;3;7;197;10;5;0;0;0;0;0;0;0;0;6;113;3095;4;51;69;490;467;23;7;2;1596;6;7;487;15;8;3;1652;6;8;488;14;9;1;918;4;4;534;10
10.12.20;14:25:00;1;312;10768;0;2;55;1762;4;81;366;11;3;8;1079;4;18;515;13;4;28;1579;3;29;198;10;5;0;0;0;0;0;0;0;0;6;125;3085;4;57;70;490;467;23;7;20;1596;6;30;435;15;8;22;1651;6;33;436;14;9;9;918;3;19;494;10
10.12.20;14:20:00;1;364;10742;0;2;73;1757;4;99;375;11;3;7;1078;6;12;545;14;4;35;1577;3;36;197;10;5;0;0;0;0;0;0;0;0;6;145;3075;4;60;69;490;467;23;7;53;1594;4;76;354;15;8;53;1650;4;81;397;14;9;9;917;6;17;526;10
10.12.20;14:15:00;1;347;10711;0;2;100;1751;4;128;380;11;3;28;1077;6;46;520;14;4;60;1574;3;62;197;10;5;0;0;0;0;0;0;0;0;6;173;3062;4;79;86;490;467;22;7;77;1590;4;105;436;15;8;76;1645;4;110;421;14;9;11;916;6;19;530;10
10.12.20;14:10:00;1;406;10682;0;2;146;1743;4;175;385;11;3;83;1075;4;121;485;14;4;104;1569;3;108;218;10;5;0;0;0;0;0;0;0;0;6;230;3048;4;112;120;490;468;22;7;123;1583;4;159;438;15;8;127;1639;4;157;438;14;9;48;915;6;64;513;11
10.12.20;14:05:00;1;412;10649;0;2;214;1731;4;246;387;11;3;130;1068;4;165;509;14;4;166;1561;5;173;234;10;5;0;0;0;0;0;0;0;0;6;367;3027;4;181;195;572;552;22;7;205;1573;4;240;448;15;8;205;1628;4;242;452;15;9;112;911;4;137;515;11
10.12.20;14:00:00;1;560;10613;0;2;244;1713;4;277;394;11;3;144;1057;4;184;519;14;4;192;1547;5;200;230;10;5;0;0;0;0;0;0;0;0;6;408;2996;4;203;215;576;562;22;7;218;1556;4;261;473;15;8;223;1612;4;261;480;14;9;123;902;4;150;521;11
10.12.20;13:55:00;1;342;10554;0;2;243;1693;4;274;395;11;3;149;1045;4;186;503;14;4;191;1531;5;199;230;10;5;0;0;0;0;0;0;0;0;6;397;2962;4;194;204;577;561;22;7;203;1538;4;244;438;15;8;217;1593;4;250;457;14;9;116;892;4;142;514;11
10.12.20;13:50:00;1;401;10526;0;2;260;1672;4;291;390;11;3;156;1032;4;197;515;14;4;201;1515;5;209;233;10;5;0;0;0;0;0;0;0;0;6;410;2929;4;192;204;590;559;22;7;236;1521;4;266;438;15;8;247;1575;4;273;449;14;9;126;882;4;156;515;11
10.12.20;13:45:00;1;353;10492;0;2;296;1651;4;329;393;11;3;183;1019;4;221;515;14;4;237;1498;5;247;236;10;5;0;0;0;0;0;0;0;0;6;416;2894;4;201;209;511;494;22;7;253;1502;4;296;464;15;8;260;1554;4;299;480;14;9;142;872;4;169;521;11
10.12.20;13:40:00;1;315;10463;0;2;277;1626;4;309;390;11;3;166;1004;4;208;519;14;4;216;1478;5;225;235;10;5;0;0;0;0;0;0;0;0;6;368;2859;4;190;195;490;467;22;7;216;1480;4;268;477;15;8;236;1532;4;278;476;14;9;132;860;4;157;513;11
10.12.20;13:35:00;1;1900;10436;0;2;243;1603;4;274;387;11;3;147;990;4;186;521;14;4;184;1460;5;192;229;10;5;0;0;0;0;0;0;0;0;6;329;2829;4;163;170;490;467;22;7;218;1462;4;244;471;15;8;203;1513;4;243;474;14;9;113;849;4;140;509;11
10.12.20;13:30:00;1;2158;10279;0;2;214;1583;4;247;393;11;3;126;978;4;165;527;14;4;157;1445;5;163;231;10;5;0;0;0;0;0;0;0;0;6;285;2801;4;152;156;490;467;22;7;192;1444;4;227;476;15;8;192;1496;4;235;477;14;9;108;839;4;136;496;11
10.12.20;13:25:00;1;2172;10100;0;2;173;1565;4;203;378;11;3;103;968;4;141;508;14;4;117;1432;5;121;229;10;5;0;0;0;0;0;0;0;0;6;238;2778;4;117;123;490;467;22;7;162;1428;4;198;464;15;8;159;1480;4;201;472;14;9;90;830;4;114;486;11
10.12.20;13:20:00;1;2231;9919;0;2;151;1550;4;181;388;11;3;89;959;4;125;497;14;4;102;1422;5;106;219;10;5;0;0;0;0;0;0;0;0;6;224;2758;4;113;125;490;467;22;7;143;1415;4;179;458;15;8;140;1466;4;176;472;14;9;80;823;4;104;474;11
10.12.20;13:15:00;1;395;9740;0;2;142;1538;4;172;385;11;3;81;952;4;118;470;14;4;98;1414;3;102;220;10;5;0;0;0;0;0;0;0;0;6;224;2740;4;111;117;489;467;22;7;139;1403;4;171;451;15;8;140;1455;4;170;444;14;9;22;816;6;28;568;11